Miscellaneous Local Product
Issued by NWS Hastings, NE

Home | Current Version | Previous Version | Text Only | Print | Product List | Glossary Off
Versions: 1 2 3 4 5 6 7 8 9 10 11 12 13 14 15 16 17 18 19 20 21 22 23 24 25 26 27 28 29 30 31 32 33 34 35 36 37 38 39 40 41 42 43 44 45 46 47 48 49 50

436
AXUS43 KGID 300002
MISGRI

GID CWA HOURLY WEATHER ROUNDUP
NATIONAL WEATHER SERVICE HASTINGS NE
700 PM CDT SUN MAY 29 2016

NOTE: "FAIR" INDICATES FEW OR NO CLOUDS BELOW 12,000 FEET WITH NO
SIGNIFICANT WEATHER AND/OR OBSTRUCTIONS TO VISIBILITY.

...SOUTH CENTRAL NEBRASKA...

CITY           SKY/WX    TMP DP  RH WIND       PRES   REMARKS
GRAND ISLAND   CLOUDY    75  58  55 S16G26    29.99S
HASTINGS       CLOUDY    72  56  57 E9        29.99S
KEARNEY        CLOUDY    77  55  47 S10       30.00S
ORD            SUNNY     80  55  42 SE9       29.97S
YORK           CLOUDY    77  61  57 SE6       30.00R
AURORA         CLOUDY    79  59  49 S5        29.99R
LEXINGTON      CLOUDY    73  58  60 SW16      30.00R
HOLDREGE       CLOUDY    73  55  51 S3        30.00F
HEBRON         CLOUDY    81  59  48 S8        30.00S

...NEBRASKA PANHANDLE...

CITY           SKY/WX    TMP DP  RH WIND       PRES   REMARKS
CHADRON        SUNNY     81  45  28 N7        29.96F
ALLIANCE       CLOUDY    75  46  35 SW9       29.98F
SCOTTSBLUFF    CLOUDY    74  41  30 SW12      30.01F
SIDNEY         SUNNY     76  44  32 VRB5      30.02F

...WESTERN AND NORTH CENTRAL NEBRASKA...

CITY           SKY/WX    TMP DP  RH WIND       PRES   REMARKS
VALENTINE      SUNNY     79  51  37 SE12      29.96F
AINSWORTH      SUNNY     77  53  42 SE9G16    29.98F
ONEILL         SUNNY     79  51  38 SE5       30.00F
BROKEN BOW     SUNNY     80  56  43 SE7       29.98F
IMPERIAL       CLOUDY    69  53  56 SE17G29   29.99R THUNDER
NORTH PLATTE   CLOUDY    78  57  48 E14       29.96F
MCCOOK         CLOUDY    69  55  60 SE9G21    29.99R

...EASTERN NEBRASKA...

CITY           SKY/WX    TMP DP  RH WIND       PRES   REMARKS
NORFOLK        SUNNY     79  56  45 E6        29.98F
SO SIOUX CITY  SUNNY     82  57  42 NE7       29.98F
TEKAMAH          N/A    N/A N/A N/A MISG      29.97F
COLUMBUS       CLOUDY    82  54  36 E6        30.00S
ALBION         SUNNY     80  52  37 SE7       29.99S
OMAHA EPPLEY   MOSUNNY   85  57  38 NE5       29.97F
MILLARD        SUNNY     85  56  37 CALM      29.98S
LINCOLN        CLOUDY    81  62  52 S5        29.99S
NEBRASKA CITY  SUNNY     83  55  37 SW6       29.99F
BEATRICE       CLOUDY    81  59  47 S7        30.00R
FALLS CITY     CLOUDY    83  58  42 SW8       30.00R

...NORTHERN KANSAS...

CITY           SKY/WX    TMP DP  RH WIND       PRES   REMARKS
GOODLAND       CLOUDY    66  50  56 SE22G31   30.03R
HILL CITY      LGT RAIN  69  50  50 S23G37    30.03F
NORTON         MOCLDY    72  48  43 E7        30.00S
PHILLIPSBURG   MOSUNNY   75  57  53 S8        30.01F
SMITH CENTER   PTSUNNY   72  64  78 S3        30.01F
BELOIT         MOSUNNY   61  43  51 SE9       29.99F
HAYS           CLOUDY    72  48  43 NW14      30.01F
RUSSELL        CLOUDY    76  62  62 S26G40    29.99F THUNDER
CONCORDIA      CLOUDY    70  60  70 S12       30.01S
SALINA         CLOUDY    76  63  64 S13       30.03S
TOPEKA         MOSUNNY   80  61  52 S5        30.02S



USA.gov is the U.S. government's official web portal to all federal, state and local government web resources and services.